| time (UTC) | temp F | wind direction | speed knots | gust knots | rain 1hr in | rain 24hr in | rain mn in | humidity % | barometer mb |
| 20260506182608 | 54 | 60 | 0.9 | 0.9 | 0.07 | 0.86 | 0.86 | 99 | 1003.8 |
| 20260506182104 | 54 | 154 | 0.9 | 0.9 | 0.05 | 0.85 | 0.85 | 99 | 1004.0 |
| 20260506181602 | 59 | 64 | 0.0 | 0.0 | 0.07 | 0.84 | 0.84 | 99 | 1004.1 |
| 20260506181059 | 59 | 185 | 0.0 | 0.0 | 0.05 | 0.83 | 0.83 | 99 | 1004.2 |
| 20260506180556 | 59 | 184 | 0.0 | 0.0 | 0.05 | 0.83 | 0.83 | 99 | 1004.0 |
| 20260506180052 | 59 | 212 | 0.0 | 0.0 | 0.07 | 0.82 | 0.82 | 99 | 1004.0 |
| 20260506175548 | 59 | 134 | 0.0 | 0.0 | 0.05 | 0.81 | 0.81 | 99 | 1004.2 |
| 20260506175045 | 59 | 134 | 0.0 | 0.0 | 0.12 | 0.81 | 0.81 | 99 | 1004.1 |
| 20260506174544 | 59 | 133 | 0.0 | 0.0 | 0.07 | 0.80 | 0.80 | 99 | 1004.1 |
| 20260506174039 | 58 | 133 | 0.0 | 0.0 | 0.05 | 0.79 | 0.79 | 99 | 1004.0 |
| 20260506173537 | 58 | 133 | 0.0 | 0.0 | 0.12 | 0.79 | 0.79 | 99 | 1004.1 |
| 20260506173034 | 58 | 133 | 0.0 | 0.0 | 0.05 | 0.77 | 0.77 | 99 | 1004.1 |
| 20260506172531 | 58 | 133 | 0.0 | 0.0 | 0.12 | 0.77 | 0.77 | 99 | 1004.3 |
| 20260506172022 | 58 | 133 | 0.0 | 0.0 | 0.12 | 0.75 | 0.75 | 99 | 1004.5 |
| 20260506171519 | 58 | 133 | 0.0 | 0.0 | 0.19 | 0.74 | 0.74 | 99 | 1004.3 |
| 20260506171017 | 58 | 133 | 0.0 | 0.0 | 0.24 | 0.73 | 0.73 | 99 | 1004.5 |
| 20260506170514 | 58 | 133 | 0.0 | 0.0 | 0.17 | 0.70 | 0.70 | 99 | 1004.6 |
| 20260506170006 | 58 | 133 | 0.0 | 0.0 | 0.19 | 0.69 | 0.69 | 99 | 1004.6 |
| 20260506165504 | 58 | 133 | 0.0 | 0.0 | 0.19 | 0.67 | 0.67 | 99 | 1004.8 |
| 20260506165000 | 58 | 133 | 0.0 | 0.0 | 0.12 | 0.65 | 0.65 | 99 | 1005.1 |
| 20260506164457 | 58 | 133 | 0.0 | 0.0 | 0.12 | 0.64 | 0.64 | 99 | 1005.2 |
| 20260506163954 | 58 | 133 | 0.0 | 0.0 | 0.19 | 0.63 | 0.63 | 99 | 1005.2 |
| 20260506163449 | 58 | 133 | 0.0 | 0.0 | 0.17 | 0.61 | 0.61 | 99 | 1005.0 |
| 20260506162944 | 58 | 133 | 0.0 | 0.0 | 0.24 | 0.60 | 0.60 | 99 | 1004.9 |
| 20260506162442 | 58 | 133 | 0.0 | 0.0 | 0.24 | 0.58 | 0.58 | 99 | 1005.0 |
| 20260506161939 | 58 | 133 | 0.0 | 0.0 | 0.17 | 0.55 | 0.55 | 99 | 1005.2 |
| 20260506161438 | 58 | 133 | 0.0 | 0.0 | 0.17 | 0.53 | 0.53 | 99 | 1005.3 |
| 20260506160934 | 58 | 133 | 0.0 | 0.0 | 0.19 | 0.52 | 0.52 | 99 | 1005.4 |
| 20260506160432 | 57 | 133 | 0.0 | 0.0 | 0.14 | 0.50 | 0.50 | 99 | 1005.4 |
| 20260506155929 | 57 | 133 | 0.0 | 0.0 | 0.12 | 0.49 | 0.49 | 99 | 1005.4 |
| 20260506155426 | 57 | 133 | 0.0 | 0.0 | 0.12 | 0.48 | 0.48 | 99 | 1005.5 |
| 20260506153548 | 57 | 133 | 0.0 | 0.0 | 0.12 | 0.44 | 0.44 | 99 | 1005.7 |
| 20260506153045 | 58 | 133 | 0.0 | 0.0 | 0.12 | 0.43 | 0.43 | 99 | 1005.7 |
| 20260506152542 | 57 | 133 | 0.0 | 0.0 | 0.12 | 0.42 | 0.42 | 99 | 1005.7 |
| 20260506152040 | 57 | 133 | 0.0 | 0.0 | 0.12 | 0.41 | 0.41 | 99 | 1005.9 |
| 20260506151538 | 57 | 133 | 0.0 | 0.0 | 0.17 | 0.40 | 0.40 | 99 | 1006.0 |
| 20260506151035 | 57 | 133 | 0.0 | 0.0 | 0.12 | 0.38 | 0.38 | 99 | 1006.0 |
| 20260506150531 | 57 | 133 | 0.0 | 0.0 | 0.14 | 0.37 | 0.37 | 99 | 1005.8 |
| 20260506150029 | 57 | 133 | 0.0 | 0.0 | 0.24 | 0.36 | 0.36 | 99 | 1006.1 |
| 20260506145525 | 57 | 133 | 0.0 | 0.0 | 0.19 | 0.34 | 0.34 | 99 | 1006.2 |
| 20260506145023 | 57 | 133 | 0.0 | 0.0 | 0.19 | 0.32 | 0.32 | 99 | 1006.4 |
| 20260506144519 | 57 | 133 | 0.0 | 0.0 | 0.17 | 0.31 | 0.31 | 99 | 1006.6 |
| 20260506144017 | 57 | 133 | 0.0 | 0.0 | 0.19 | 0.30 | 0.30 | 99 | 1006.4 |
| 20260506143514 | 57 | 133 | 0.0 | 0.0 | 0.19 | 0.28 | 0.28 | 99 | 1006.7 |
| 20260506143013 | 57 | 133 | 0.0 | 0.0 | 0.17 | 0.27 | 0.27 | 99 | 1006.9 |
| 20260506142510 | 57 | 133 | 0.0 | 0.0 | 0.19 | 0.25 | 0.25 | 99 | 1006.9 |
| 20260506142008 | 57 | 133 | 0.0 | 0.0 | 0.19 | 0.23 | 0.23 | 99 | 1006.6 |
| 20260506141506 | 57 | 133 | 0.0 | 0.0 | 0.17 | 0.22 | 0.22 | 99 | 1006.7 |
| 20260506141004 | 57 | 132 | 0.0 | 0.0 | 0.12 | 0.20 | 0.20 | 99 | 1006.4 |
| 20260506140501 | 57 | 132 | 0.0 | 0.0 | 0.12 | 0.19 | 0.19 | 99 | 1006.6 |
| 20260506135957 | 57 | 132 | 0.0 | 0.0 | 0.07 | 0.17 | 0.17 | 99 | 1006.5 |
| 20260506135454 | 57 | 132 | 0.0 | 0.0 | 0.05 | 0.16 | 0.16 | 99 | 1006.4 |
| 20260506134950 | 57 | 132 | 0.0 | 0.0 | 0.07 | 0.15 | 0.15 | 99 | 1006.5 |
| 20260506134446 | 56 | 132 | 0.0 | 0.0 | 0.07 | 0.15 | 0.15 | 99 | 1006.5 |
| 20260506133943 | 57 | 132 | 0.0 | 0.0 | 0.12 | 0.15 | 0.15 | 99 | 1006.5 |
| 20260506133441 | 56 | 132 | 0.0 | 0.0 | 0.12 | 0.14 | 0.14 | 99 | 1006.4 |
| 20260506132937 | 56 | 132 | 0.0 | 0.0 | 0.14 | 0.13 | 0.13 | 99 | 1006.5 |
| 20260506132434 | 56 | 132 | 0.0 | 0.0 | 0.12 | 0.12 | 0.12 | 99 | 1006.5 |
| 20260506131932 | 56 | 132 | 0.0 | 0.0 | 0.12 | 0.11 | 0.11 | 99 | 1006.1 |
| 20260506131428 | 56 | 132 | 0.0 | 0.0 | 0.07 | 0.10 | 0.10 | 99 | 1006.3 |
| 20260506130925 | 56 | 132 | 0.0 | 0.0 | 0.05 | 0.09 | 0.09 | 99 | 1006.3 |
| 20260506130421 | 56 | 134 | 0.0 | 0.0 | 0.12 | 0.09 | 0.09 | 99 | 1006.5 |
| 20260506125920 | 56 | 134 | 0.0 | 0.0 | 0.05 | 0.07 | 0.07 | 99 | 1006.6 |
| 20260506125418 | 56 | 134 | 0.0 | 0.0 | 0.05 | 0.07 | 0.07 | 99 | 1006.7 |
| 20260506124916 | 56 | 134 | 0.0 | 0.0 | 0.00 | 0.06 | 0.06 | 99 | 1006.7 |
| 20260506124413 | 56 | 134 | 0.0 | 0.0 | 0.07 | 0.06 | 0.06 | 99 | 1006.9 |
| 20260506123911 | 56 | 134 | 0.0 | 0.0 | 0.07 | 0.06 | 0.06 | 99 | 1007.0 |
| 20260506123409 | 55 | 134 | 0.0 | 0.0 | 0.05 | 0.05 | 0.05 | 99 | 1007.1 |
| 20260506122906 | 55 | 134 | 0.0 | 0.0 | 0.05 | 0.05 | 0.05 | 99 | 1007.2 |
| 20260506122402 | 55 | 134 | 0.0 | 0.0 | 0.00 | 0.04 | 0.04 | 99 | 1007.3 |
| 20260506121901 | 55 | 134 | 0.0 | 0.0 | 0.00 | 0.04 | 0.04 | 99 | 1007.1 |
| 20260506121357 | 55 | 134 | 0.0 | 0.0 | 0.07 | 0.04 | 0.04 | 99 | 1007.0 |
| 20260506120854 | 55 | 134 | 0.0 | 0.0 | 0.07 | 0.04 | 0.04 | 99 | 1007.0 |
| 20260506120352 | 55 | 134 | 0.0 | 0.0 | 0.07 | 0.04 | 0.04 | 99 | 1006.8 |
| 20260506115849 | 55 | 133 | 0.0 | 0.0 | 0.00 | 0.03 | 0.03 | 99 | 1006.8 |
| 20260506115347 | 55 | 134 | 0.0 | 0.0 | 0.00 | 0.03 | 0.03 | 99 | 1006.6 |
| 20260506114845 | 55 | 133 | 0.0 | 0.0 | 0.00 | 0.03 | 0.03 | 99 | 1006.3 |
| 20260506114342 | 55 | 135 | 0.0 | 0.0 | 0.00 | 0.03 | 0.03 | 99 | 1006.5 |
| 20260506113841 | 55 | 135 | 0.0 | 0.0 | 0.00 | 0.03 | 0.03 | 99 | 1006.5 |
| 20260506113338 | 55 | 135 | 0.0 | 0.0 | 0.00 | 0.03 | 0.03 | 99 | 1006.6 |
| 20260506112834 | 55 | 135 | 0.0 | 0.0 | 0.00 | 0.03 | 0.03 | 99 | 1006.6 |
| 20260506112332 | 55 | 135 | 0.0 | 0.0 | 0.00 | 0.03 | 0.03 | 99 | 1006.7 |
| 20260506111829 | 55 | 135 | 0.0 | 0.0 | 0.00 | 0.03 | 0.03 | 99 | 1006.7 |
| 20260506111327 | 55 | 135 | 0.0 | 0.0 | 0.00 | 0.03 | 0.03 | 99 | 1006.9 |
| 20260506110824 | 54 | 135 | 0.0 | 0.0 | 0.00 | 0.03 | 0.03 | 99 | 1006.7 |
| 20260506110321 | 54 | 134 | 0.0 | 0.0 | 0.00 | 0.03 | 0.03 | 99 | 1006.6 |
| 20260506105818 | 54 | 145 | 0.0 | 0.0 | 0.00 | 0.03 | 0.03 | 99 | 1006.4 |
| 20260506105315 | 54 | 145 | 0.0 | 0.0 | 0.00 | 0.03 | 0.03 | 99 | 1006.4 |
| 20260506104812 | 54 | 144 | 0.0 | 0.0 | 0.00 | 0.03 | 0.03 | 99 | 1006.5 |
| 20260506104310 | 54 | 144 | 0.0 | 0.0 | 0.00 | 0.03 | 0.03 | 99 | 1006.5 |
| 20260506103807 | 54 | 144 | 0.0 | 0.0 | 0.00 | 0.03 | 0.03 | 99 | 1006.4 |
| 20260506103305 | 54 | 145 | 0.0 | 0.0 | 0.00 | 0.03 | 0.03 | 99 | 1006.3 |
| 20260506102802 | 54 | 145 | 0.0 | 0.0 | 0.00 | 0.03 | 0.03 | 99 | 1006.3 |
| 20260506102300 | 54 | 145 | 0.0 | 0.0 | 0.00 | 0.03 | 0.03 | 99 | 1006.2 |
| 20260506101757 | 54 | 145 | 0.0 | 0.0 | 0.00 | 0.03 | 0.03 | 99 | 1006.1 |
| 20260506101253 | 54 | 145 | 0.0 | 0.0 | 0.00 | 0.03 | 0.03 | 99 | 1006.3 |
| 20260506100751 | 54 | 145 | 0.0 | 0.0 | 0.00 | 0.03 | 0.03 | 99 | 1006.0 |
| 20260506100249 | 54 | 145 | 0.0 | 0.0 | 0.00 | 0.03 | 0.03 | 99 | 1006.2 |
| 20260506095747 | 54 | 145 | 0.0 | 0.0 | 0.00 | 0.03 | 0.03 | 99 | 1006.2 |
| 20260506095244 | 54 | 145 | 0.0 | 0.0 | 0.00 | 0.03 | 0.03 | 99 | 1006.4 |
| 20260506094740 | 54 | 145 | 0.0 | 0.0 | 0.00 | 0.03 | 0.03 | 99 | 1006.0 |
| 20260506094239 | 54 | 145 | 0.0 | 0.0 | 0.00 | 0.03 | 0.03 | 99 | 1006.5 |
| 20260506093737 | 54 | 145 | 0.0 | 0.0 | 0.00 | 0.03 | 0.03 | 99 | 1006.2 |
| 20260506093234 | 53 | 145 | 0.0 | 0.0 | 0.00 | 0.03 | 0.03 | 99 | 1006.2 |
| 20260506092732 | 53 | 145 | 0.0 | 0.0 | 0.00 | 0.03 | 0.03 | 99 | 1006.0 |
| 20260506092230 | 53 | 145 | 0.0 | 0.0 | 0.00 | 0.03 | 0.03 | 99 | 1006.2 |
| 20260506091726 | 53 | 145 | 0.0 | 0.0 | 0.00 | 0.03 | 0.03 | 99 | 1006.6 |
| 20260506091224 | 53 | 145 | 0.0 | 0.0 | 0.00 | 0.03 | 0.03 | 99 | 1006.3 |
| 20260506090722 | 53 | 145 | 0.0 | 0.0 | 0.00 | 0.03 | 0.03 | 99 | 1006.0 |
| 20260506090218 | 53 | 145 | 0.0 | 0.0 | 0.00 | 0.03 | 0.03 | 99 | 1006.2 |
| 20260506085715 | 54 | 145 | 0.0 | 0.0 | 0.00 | 0.03 | 0.03 | 99 | 1006.4 |
| 20260506085211 | 54 | 145 | 0.0 | 0.0 | 0.00 | 0.03 | 0.03 | 99 | 1006.6 |
| 20260506084708 | 54 | 145 | 0.0 | 0.0 | 0.00 | 0.03 | 0.03 | 99 | 1006.5 |
| 20260506084204 | 54 | 145 | 0.0 | 0.0 | 0.00 | 0.03 | 0.03 | 99 | 1006.3 |
| 20260506083701 | 54 | 145 | 0.0 | 0.0 | 0.00 | 0.03 | 0.03 | 99 | 1006.8 |
| 20260506083159 | 54 | 145 | 0.0 | 0.0 | 0.00 | 0.03 | 0.03 | 99 | 1006.5 |
| 20260506082656 | 54 | 145 | 0.0 | 0.0 | 0.00 | 0.03 | 0.03 | 99 | 1006.9 |
| 20260506082156 | 54 | 145 | 0.0 | 0.0 | 0.00 | 0.03 | 0.03 | 99 | 1006.6 |
| 20260506081655 | 54 | 145 | 0.0 | 0.0 | 0.00 | 0.03 | 0.03 | 99 | 1006.7 |
| 20260506081152 | 55 | 145 | 0.0 | 0.0 | 0.00 | 0.03 | 0.03 | 99 | 1006.6 |
| 20260506080650 | 54 | 145 | 0.0 | 0.0 | 0.00 | 0.03 | 0.03 | 99 | 1006.8 |
| 20260506080146 | 54 | 145 | 0.0 | 0.0 | 0.00 | 0.03 | 0.03 | 99 | 1007.0 |
| 20260506073130 | 55 | 145 | 0.0 | 0.0 | 0.00 | 0.03 | 0.03 | 99 | 1007.3 |
| 20260506072626 | 55 | 145 | 0.0 | 0.0 | 0.00 | 0.03 | 0.03 | 99 | 1007.0 |
| 20260506072125 | 55 | 145 | 0.0 | 0.0 | 0.00 | 0.03 | 0.03 | 99 | 1006.7 |
| 20260506071622 | 55 | 145 | 0.0 | 0.0 | 0.00 | 0.03 | 0.03 | 99 | 1006.9 |
| 20260506071120 | 55 | 145 | 0.0 | 0.0 | 0.00 | 0.03 | 0.03 | 99 | 1007.1 |
| 20260506070616 | 54 | 145 | 0.0 | 0.0 | 0.00 | 0.03 | 0.03 | 99 | 1007.0 |
| 20260506070114 | 55 | 145 | 0.0 | 0.0 | 0.00 | 0.03 | 0.03 | 99 | 1007.1 |
| 20260506062051 | 56 | 145 | 0.0 | 0.0 | 0.00 | 0.03 | 0.03 | 99 | 1007.4 |
| 20260506061546 | 56 | 145 | 0.0 | 0.0 | 0.00 | 0.03 | 0.03 | 99 | 1007.3 |
| 20260506061044 | 55 | 145 | 0.0 | 0.0 | 0.00 | 0.03 | 0.03 | 99 | 1007.2 |
| 20260506060543 | 56 | 145 | 0.0 | 0.0 | 0.00 | 0.03 | 0.03 | 99 | 1007.3 |
| 20260506051011 | 57 | 145 | 0.0 | 0.0 | 0.05 | 0.03 | 0.03 | 99 | 1007.4 |
| 20260506050509 | 57 | 145 | 0.0 | 0.0 | 0.05 | 0.03 | 0.03 | 99 | 1007.5 |
| 20260506045000 | 57 | 146 | 0.0 | 0.0 | 0.00 | 0.02 | 0.02 | 99 | 1007.9 |
| 20260506044458 | 57 | 146 | 0.0 | 0.0 | 0.00 | 0.02 | 0.02 | 99 | 1008.1 |
| 20260506043954 | 57 | 145 | 0.0 | 0.9 | 0.07 | 0.02 | 0.02 | 99 | 1007.9 |
| 20260506043451 | 57 | 145 | 0.0 | 0.0 | 0.00 | 0.01 | 0.01 | 99 | 1007.6 |
| 20260506042949 | 57 | 147 | 0.9 | 0.9 | 0.00 | 0.01 | 0.01 | 99 | 1007.7 |
| 20260506042449 | 57 | 148 | 0.0 | 0.0 | 0.05 | 0.01 | 0.01 | 99 | 1007.7 |
| 20260506041946 | 57 | 148 | 0.0 | 0.0 | 0.05 | 0.01 | 0.01 | 99 | 1007.2 |
| 20260506041444 | 57 | 148 | 0.0 | 0.0 | 0.00 | 0.00 | 0.00 | 99 | 1007.0 |
| 20260506040941 | 57 | 148 | 0.0 | 0.0 | 0.00 | 0.00 | 0.00 | 99 | 1007.6 |
| 20260506040438 | 57 | 167 | 0.0 | 0.0 | 0.00 | 0.00 | 0.00 | 99 | 1007.2 |
| 20260506035934 | 57 | 168 | 0.0 | 0.0 | 0.00 | 0.09 | 0.09 | 99 | 1007.6 |
| 20260506035432 | 57 | 168 | 0.0 | 0.0 | 0.00 | 0.09 | 0.09 | 99 | 1007.4 |
| 20260506034928 | 57 | 168 | 0.0 | 0.0 | 0.00 | 0.09 | 0.09 | 99 | 1007.4 |
| 20260506034426 | 57 | 168 | 0.0 | 0.0 | 0.00 | 0.09 | 0.09 | 99 | 1007.2 |
| 20260506033923 | 57 | 168 | 0.0 | 0.0 | 0.00 | 0.09 | 0.09 | 99 | 1007.2 |
| 20260506033420 | 57 | 168 | 0.0 | 0.0 | 0.00 | 0.09 | 0.09 | 99 | 1007.4 |
| 20260506032917 | 57 | 168 | 0.0 | 0.0 | 0.00 | 0.09 | 0.09 | 99 | 1007.1 |
| 20260506032414 | 57 | 168 | 0.0 | 0.0 | 0.00 | 0.09 | 0.09 | 99 | 1006.9 |
| 20260506031910 | 57 | 168 | 0.0 | 0.0 | 0.00 | 0.09 | 0.09 | 99 | 1007.0 |
| 20260506031408 | 57 | 167 | 0.0 | 0.0 | 0.00 | 0.09 | 0.09 | 99 | 1007.1 |
| 20260506030905 | 57 | 167 | 0.0 | 0.0 | 0.00 | 0.09 | 0.09 | 99 | 1007.0 |
| 20260506030403 | 57 | 168 | 0.0 | 0.0 | 0.00 | 0.09 | 0.09 | 99 | 1006.8 |
| 20260506025859 | 57 | 168 | 0.0 | 0.0 | 0.00 | 0.09 | 0.09 | 99 | 1007.3 |
| 20260506025356 | 57 | 168 | 0.0 | 0.0 | 0.00 | 0.09 | 0.09 | 99 | 1006.9 |
| 20260506024853 | 58 | 168 | 0.0 | 0.0 | 0.00 | 0.09 | 0.09 | 99 | 1006.9 |
| 20260506024350 | 58 | 168 | 0.0 | 0.0 | 0.00 | 0.09 | 0.09 | 99 | 1007.0 |
| 20260506023846 | 58 | 168 | 0.0 | 0.0 | 0.00 | 0.09 | 0.09 | 99 | 1007.1 |
| 20260506023343 | 58 | 168 | 0.0 | 0.0 | 0.00 | 0.09 | 0.09 | 99 | 1007.1 |
| 20260506022840 | 58 | 168 | 0.0 | 0.0 | 0.00 | 0.09 | 0.09 | 99 | 1006.8 |
| 20260506022338 | 58 | 168 | 0.0 | 0.0 | 0.00 | 0.09 | 0.09 | 99 | 1007.0 |
| 20260506021836 | 58 | 168 | 0.0 | 0.0 | 0.00 | 0.09 | 0.09 | 99 | 1006.9 |
| 20260506021332 | 58 | 168 | 0.0 | 0.0 | 0.00 | 0.09 | 0.09 | 99 | 1006.8 |
| 20260506020829 | 57 | 168 | 0.0 | 0.0 | 0.00 | 0.09 | 0.09 | 99 | 1006.8 |
| 20260506020327 | 58 | 168 | 0.0 | 0.0 | 0.00 | 0.09 | 0.09 | 99 | 1006.5 |
| 20260506015824 | 57 | 168 | 0.0 | 0.0 | 0.00 | 0.09 | 0.09 | 99 | 1006.8 |
| 20260506015321 | 58 | 168 | 0.0 | 0.0 | 0.00 | 0.09 | 0.09 | 99 | 1006.9 |
| 20260506014818 | 58 | 168 | 0.0 | 0.0 | 0.00 | 0.09 | 0.09 | 99 | 1006.7 |
| 20260506014315 | 58 | 168 | 0.0 | 0.0 | 0.00 | 0.09 | 0.09 | 99 | 1006.7 |
| 20260506013812 | 58 | 168 | 0.0 | 0.0 | 0.00 | 0.09 | 0.09 | 99 | 1006.1 |
| 20260506013309 | 58 | 168 | 0.0 | 0.0 | 0.00 | 0.09 | 0.09 | 99 | 1006.3 |
| 20260506012805 | 58 | 168 | 0.0 | 0.0 | 0.00 | 0.09 | 0.09 | 99 | 1006.4 |
| 20260506012307 | 58 | 168 | 0.0 | 0.0 | 0.00 | 0.09 | 0.09 | 99 | 1006.2 |
| 20260506011800 | 58 | 168 | 0.0 | 0.0 | 0.00 | 0.09 | 0.09 | 99 | 1006.4 |
| 20260506011256 | 57 | 168 | 0.0 | 0.0 | 0.00 | 0.09 | 0.09 | 99 | 1006.6 |
| 20260506010754 | 57 | 168 | 0.0 | 0.0 | 0.00 | 0.09 | 0.09 | 99 | 1006.4 |
| 20260506010251 | 57 | 168 | 0.9 | 0.9 | 0.00 | 0.09 | 0.09 | 99 | 1006.5 |
| 20260506005748 | 57 | 171 | 0.0 | 0.0 | 0.00 | 0.09 | 0.09 | 99 | 1006.2 |
| 20260506005245 | 57 | 171 | 0.0 | 0.0 | 0.00 | 0.09 | 0.09 | 99 | 1006.1 |
| 20260506004741 | 58 | 171 | 0.0 | 0.0 | 0.00 | 0.09 | 0.09 | 99 | 1005.8 |
| 20260506004239 | 58 | 171 | 0.0 | 0.0 | 0.00 | 0.09 | 0.09 | 99 | 1005.7 |
| 20260506003734 | 59 | 171 | 0.0 | 0.0 | 0.00 | 0.09 | 0.09 | 99 | 1005.7 |
| 20260506003231 | 59 | 171 | 0.0 | 0.0 | 0.00 | 0.09 | 0.09 | 99 | 1005.6 |
| 20260506002727 | 59 | 172 | 0.0 | 0.0 | 0.00 | 0.09 | 0.09 | 99 | 1005.6 |
| 20260506002224 | 59 | 172 | 0.0 | 0.0 | 0.00 | 0.09 | 0.09 | 99 | 1005.7 |
| 20260506001719 | 60 | 171 | 0.0 | 0.0 | 0.00 | 0.09 | 0.09 | 98 | 1005.3 |
| 20260506001217 | 60 | 171 | 0.0 | 0.0 | 0.00 | 0.09 | 0.09 | 98 | 1005.3 |
| 20260506000714 | 60 | 171 | 0.0 | 0.0 | 0.00 | 0.09 | 0.09 | 97 | 1005.2 |
| 20260506000212 | 61 | 170 | 0.0 | 0.0 | 0.00 | 0.09 | 0.09 | 94 | 1005.3 |
| 20260505235709 | 61 | 171 | 0.0 | 0.0 | 0.00 | 0.09 | 0.09 | 94 | 1005.5 |
| 20260505235206 | 61 | 171 | 0.0 | 0.0 | 0.00 | 0.09 | 0.09 | 94 | 1005.4 |
| 20260505234703 | 62 | 171 | 0.0 | 0.0 | 0.00 | 0.09 | 0.09 | 94 | 1005.3 |
| 20260505234200 | 62 | 171 | 0.9 | 0.9 | 0.00 | 0.09 | 0.09 | 92 | 1005.5 |
| 20260505233656 | 63 | 171 | 0.0 | 0.0 | 0.00 | 0.09 | 0.09 | 90 | 1005.0 |
| 20260505233155 | 63 | 171 | 0.0 | 0.0 | 0.07 | 0.09 | 0.09 | 89 | 1005.4 |
| 20260505232652 | 63 | 171 | 0.0 | 0.0 | 0.07 | 0.09 | 0.09 | 88 | 1005.4 |
| 20260505232149 | 64 | 171 | 0.0 | 0.0 | 0.00 | 0.08 | 0.08 | 86 | 1005.4 |
| 20260505231646 | 64 | 171 | 0.0 | 0.0 | 0.00 | 0.08 | 0.08 | 86 | 1005.4 |
| 20260505231145 | 64 | 171 | 0.0 | 0.0 | 0.00 | 0.08 | 0.08 | 86 | 1005.1 |
| 20260505230642 | 64 | 171 | 0.0 | 0.0 | 0.00 | 0.08 | 0.08 | 86 | 1005.2 |
| 20260505230139 | 64 | 170 | 0.0 | 0.0 | 0.00 | 0.08 | 0.08 | 85 | 1005.3 |
| 20260505225635 | 65 | 169 | 0.9 | 0.9 | 0.00 | 0.08 | 0.08 | 82 | 1005.2 |
| 20260505225131 | 65 | 189 | 0.0 | 0.0 | 0.00 | 0.08 | 0.08 | 84 | 1005.1 |
| 20260505224628 | 65 | 189 | 0.0 | 0.0 | 0.00 | 0.08 | 0.08 | 83 | 1005.2 |
| 20260505224126 | 65 | 177 | 0.0 | 0.0 | 0.00 | 0.08 | 0.08 | 87 | 1005.5 |
| 20260505223623 | 65 | 170 | 0.0 | 0.0 | 0.00 | 0.08 | 0.08 | 87 | 1005.4 |
| 20260505223119 | 65 | 166 | 0.9 | 0.9 | 0.00 | 0.08 | 0.08 | 81 | 1005.4 |
| 20260505222615 | 65 | 179 | 0.0 | 0.0 | 0.00 | 0.08 | 0.08 | 88 | 1005.4 |
| 20260505222111 | 65 | 298 | 0.0 | 0.0 | 0.00 | 0.08 | 0.08 | 83 | 1005.6 |
| 20260505221609 | 65 | 298 | 0.0 | 0.9 | 0.00 | 0.08 | 0.08 | 84 | 1005.3 |
| 20260505221105 | 66 | 298 | 0.9 | 0.9 | 0.00 | 0.08 | 0.08 | 83 | 1005.3 |
| 20260505220603 | 66 | 298 | 0.0 | 0.0 | 0.00 | 0.08 | 0.08 | 81 | 1004.9 |
| 20260505220100 | 66 | 297 | 0.0 | 0.9 | 0.00 | 0.08 | 0.08 | 83 | 1005.2 |
| 20260505215558 | 66 | 300 | 0.0 | 0.9 | 0.00 | 0.08 | 0.08 | 78 | 1004.6 |
| 20260505215055 | 67 | 300 | 0.0 | 0.0 | 0.00 | 0.08 | 0.08 | 78 | 1004.5 |
| 20260505214554 | 66 | 307 | 0.9 | 0.9 | 0.00 | 0.08 | 0.08 | 79 | 1004.8 |
| 20260505214050 | 67 | 211 | 0.9 | 0.9 | 0.00 | 0.08 | 0.08 | 82 | 1004.7 |
| 20260505213548 | 66 | 10 | 4.3 | 5.2 | 0.00 | 0.08 | 0.08 | 82 | 1004.8 |
| 20260505213044 | 66 | 306 | 1.7 | 1.7 | 0.00 | 0.08 | 0.08 | 87 | 1004.8 |
| 20260505212540 | 64 | 277 | 1.7 | 2.6 | 0.00 | 0.08 | 0.08 | 99 | 1004.4 |
| 20260505212038 | 64 | 132 | 0.0 | 0.0 | 0.00 | 0.08 | 0.08 | 99 | 1004.3 |
| 20260505211535 | 64 | 132 | 0.0 | 0.0 | 0.00 | 0.08 | 0.08 | 99 | 1004.3 |
| 20260505211031 | 64 | 132 | 0.9 | 0.9 | 0.00 | 0.08 | 0.08 | 99 | 1004.0 |
| 20260505210528 | 65 | 131 | 0.0 | 0.0 | 0.00 | 0.08 | 0.08 | 97 | 1003.5 |
| 20260505210026 | 65 | 131 | 0.0 | 0.0 | 0.00 | 0.08 | 0.08 | 97 | 1003.3 |
| 20260505205523 | 64 | 131 | 0.0 | 0.9 | 0.00 | 0.08 | 0.08 | 96 | 1003.2 |
| 20260505205020 | 65 | 132 | 0.9 | 0.9 | 0.00 | 0.08 | 0.08 | 96 | 1002.9 |
| 20260505204518 | 65 | 139 | 0.0 | 0.9 | 0.00 | 0.08 | 0.08 | 93 | 1003.4 |
| 20260505204015 | 65 | 156 | 0.0 | 0.0 | 0.00 | 0.08 | 0.08 | 99 | 1003.4 |
| 20260505203511 | 65 | 157 | 0.0 | 0.0 | 0.00 | 0.08 | 0.08 | 99 | 1003.3 |
| 20260505203009 | 64 | 158 | 0.0 | 0.0 | 0.00 | 0.08 | 0.08 | 99 | 1003.2 |
| 20260505202504 | 63 | 156 | 0.9 | 0.9 | 0.00 | 0.08 | 0.08 | 98 | 1003.3 |
| 20260505202000 | 63 | 173 | 0.9 | 0.9 | 0.00 | 0.08 | 0.08 | 99 | 1002.8 |
| 20260505201457 | 63 | 186 | 0.9 | 0.9 | 0.00 | 0.08 | 0.08 | 99 | 1003.0 |
| 20260505200955 | 63 | 176 | 0.9 | 0.9 | 0.31 | 0.08 | 0.08 | 95 | 1002.7 |
| 20260505200453 | 65 | 246 | 2.6 | 4.3 | 0.47 | 0.08 | 0.08 | 88 | 1003.2 |
| 20260505195948 | 74 | 295 | 3.5 | 5.2 | 0.00 | 0.00 | 0.00 | 61 | 1003.6 |
| 20260505195446 | 75 | 282 | 2.6 | 2.6 | 0.00 | 0.00 | 0.00 | 61 | 1002.5 |
| 20260505194943 | 75 | 236 | 2.6 | 2.6 | 0.00 | 0.00 | 0.00 | 59 | 1001.7 |
| 20260505194440 | 78 | 218 | 0.9 | 0.9 | 0.00 | 0.00 | 0.00 | 49 | 1001.4 |
| 20260505193940 | 78 | 239 | 1.7 | 2.6 | 0.00 | 0.00 | 0.00 | 49 | 1001.7 |
| 20260505193438 | 78 | 212 | 3.5 | 4.3 | 0.00 | 0.00 | 0.00 | 49 | 1001.5 |
| 20260505192936 | 78 | 217 | 5.2 | 6.1 | 0.00 | 0.00 | 0.00 | 48 | 1001.4 |
| 20260505192434 | 78 | 192 | 2.6 | 4.3 | 0.00 | 0.00 | 0.00 | 49 | 1001.6 |
| 20260505191931 | 78 | 200 | 3.5 | 4.3 | 0.00 | 0.00 | 0.00 | 49 | 1001.5 |
| 20260505191430 | 78 | 216 | 2.6 | 2.6 | 0.00 | 0.00 | 0.00 | 49 | 1001.5 |
| 20260505190926 | 78 | 211 | 5.2 | 6.1 | 0.00 | 0.00 | 0.00 | 48 | 1001.5 |
| 20260505190421 | 80 | 226 | 1.7 | 2.6 | 0.00 | 0.00 | 0.00 | 47 | 1001.6 |
| 20260505185917 | 80 | 194 | 0.9 | 0.9 | 0.00 | 0.00 | 0.00 | 49 | 1001.6 |
| 20260505185415 | 80 | 231 | 2.6 | 2.6 | 0.00 | 0.00 | 0.00 | 47 | 1001.5 |
| 20260505184910 | 79 | 221 | 2.6 | 5.2 | 0.00 | 0.00 | 0.00 | 46 | 1001.7 |
| 20260505184407 | 80 | 188 | 1.7 | 2.6 | 0.00 | 0.00 | 0.00 | 48 | 1001.7 |
| 20260505183905 | 82 | 191 | 1.7 | 1.7 | 0.00 | 0.00 | 0.00 | 46 | 1001.8 |
| 20260505183401 | 81 | 217 | 0.9 | 1.7 | 0.00 | 0.00 | 0.00 | 45 | 1001.6 |